Gadsden, AL

4:57 AM CDT on June 25, 2017 (GMT -0500)
Gadsden Municipal

Weather History for KGAD - November, 2014

Change the Weather History Date:

Wednesday, November 19, 2014

  Actual Average Record
Temperature  
Mean Temperature 32 °F -  
Max Temperature 50 °F 60 °F 83 °F (1942)
Min Temperature 15 °F 37 °F 15 °F (2014)
Degree Days  
Heating Degree Days 32    
Moisture  
Dew Point 18 °F    
Average Humidity 62    
Maximum Humidity 93    
Minimum Humidity 30    
Precipitation  
Precipitation 0.00 in - - ()
Sea Level Pressure  
Sea Level Pressure 30.33 in    
Wind  
Wind Speed 2 mph (SSW)    
Max Wind Speed 13 mph    
Max Gust Speed 18 mph    
Visibility 10 miles    
Events      
Averages and records for this station are not official NWS values.
T = Trace of Precipitation, MM = Missing Value Source: NWS Daily Summary

Daily Weather History Graph

Daily Weather History Graph

Search for Another Location

Airport or City:

Trip Planner

Search our weather history database for the weather conditions in past years. The results will help you decide how hot, cold, wet, or windy it might be!

Date:

Astronomy

Nov. 19, 2014 Rise Set
Actual Time 6:20 AM CST 4:38 PM CST
Civil Twilight 5:53 AM CST 5:05 PM CST
Nautical Twilight 5:23 AM CST 5:35 PM CST
Astronomical Twilight 4:53 AM CST 6:05 PM CST
Moon 3:24 AM CST (11/19) 2:59 PM CST (11/19)
Length of Visible Light 11h 11m
Length of Day
10h 18m
Waning Crescent, 8% of the Moon is Illuminated
Nov 19
Waning Crescent
Nov 22
New
Nov 29
First Quarter
Dec 6
Full
Dec 14
Last Quarter

Hourly Weather History & Observations

Time (CST) Temp. Windchill Dew Point Humidity Pressure Visibility Wind Dir Wind Speed Gust Speed Precip Events Conditions
12:15 AM 17.6 °F - 14.0 °F 86% 30.41 in 10.0 mi Calm Calm - N/A   Clear
12:35 AM 17.6 °F - 15.8 °F 93% 30.41 in 10.0 mi Calm Calm - N/A   Clear
12:55 AM 17.6 °F - 12.2 °F 79% 30.42 in 10.0 mi Calm Calm - N/A   Clear
1:15 AM 15.8 °F - 12.2 °F 86% 30.42 in 10.0 mi Calm Calm - N/A   Clear
1:35 AM 17.6 °F - 12.2 °F 79% 30.42 in 10.0 mi Calm Calm - N/A   Clear
1:55 AM 17.6 °F - 12.2 °F 79% 30.42 in 10.0 mi Calm Calm - N/A   Clear
2:15 AM 17.6 °F - 12.2 °F 79% 30.41 in 10.0 mi Calm Calm - N/A   Clear
2:35 AM 15.8 °F - 12.2 °F 86% 30.41 in 10.0 mi Calm Calm - N/A   Clear
2:55 AM 15.8 °F - 12.2 °F 86% 30.41 in 10.0 mi Calm Calm - N/A   Clear
3:15 AM 15.8 °F - 12.2 °F 86% 30.41 in 10.0 mi Calm Calm - N/A   Clear
3:35 AM 15.8 °F - 12.2 °F 86% 30.40 in 10.0 mi Calm Calm - N/A   Clear
3:55 AM 15.8 °F - 12.2 °F 86% 30.40 in 10.0 mi Calm Calm - N/A   Clear
4:15 AM 15.8 °F - 10.4 °F 79% 30.40 in 10.0 mi Calm Calm - N/A   Clear
4:35 AM 15.8 °F - 12.2 °F 86% 30.39 in 10.0 mi Calm Calm - N/A   Clear
4:55 AM 15.8 °F - 10.4 °F 79% 30.39 in 10.0 mi Calm Calm - N/A   Clear
5:15 AM 15.8 °F - 10.4 °F 79% 30.40 in 10.0 mi Calm Calm - N/A   Clear
5:35 AM 15.8 °F - 10.4 °F 79% 30.40 in 10.0 mi Calm Calm - N/A   Clear
5:55 AM 15.8 °F - 10.4 °F 79% 30.40 in 10.0 mi Calm Calm - N/A   Clear
6:15 AM 15.8 °F - 10.4 °F 79% 30.40 in 10.0 mi Calm Calm - N/A   Clear
6:35 AM 15.8 °F - 10.4 °F 79% 30.40 in 10.0 mi Calm Calm - N/A   Clear
6:55 AM 15.8 °F - 10.4 °F 79% 30.40 in 10.0 mi Calm Calm - N/A   Clear
7:15 AM 17.6 °F - 12.2 °F 79% 30.40 in 10.0 mi Calm Calm - N/A   Clear
7:35 AM 19.4 °F - 15.8 °F 86% 30.40 in 10.0 mi Calm Calm - N/A   Clear
7:55 AM 21.2 °F - 15.8 °F 80% 30.41 in 10.0 mi Calm Calm - N/A   Clear
8:15 AM 23.0 °F - 17.6 °F 80% 30.41 in 10.0 mi Calm Calm - N/A   Clear
8:35 AM 24.8 °F - 17.6 °F 74% 30.41 in 10.0 mi Calm Calm - N/A   Clear
8:55 AM 26.6 °F - 19.4 °F 74% 30.41 in 10.0 mi Calm Calm - N/A   Clear
9:15 AM 28.4 °F - 21.2 °F 74% 30.41 in 10.0 mi Calm Calm - N/A   Clear
9:35 AM 32.0 °F 27.5 °F 21.2 °F 64% 30.41 in 10.0 mi SSW 4.6 mph - N/A   Clear
9:55 AM 35.6 °F 30.7 °F 21.2 °F 56% 30.40 in 10.0 mi SSW 5.8 mph - N/A   Clear
10:15 AM 37.4 °F 32.1 °F 19.4 °F 48% 30.39 in 10.0 mi SSW 6.9 mph - N/A   Clear
10:35 AM 39.2 °F 34.2 °F 19.4 °F 45% 30.38 in 10.0 mi SSW 6.9 mph - N/A   Clear
10:55 AM 41.0 °F 37.1 °F 21.2 °F 45% 30.37 in 10.0 mi South 5.8 mph - N/A   Clear
11:15 AM 42.8 °F 40.1 °F 21.2 °F 42% 30.35 in 10.0 mi South 4.6 mph - N/A   Clear
11:35 AM 44.6 °F 41.4 °F 21.2 °F 39% 30.34 in 10.0 mi SSW 5.8 mph - N/A   Clear
11:55 AM 46.4 °F 42.9 °F 21.2 °F 37% 30.33 in 10.0 mi SSW 6.9 mph - N/A   Clear
12:15 PM 46.4 °F 42.9 °F 21.2 °F 37% 30.31 in 10.0 mi SW 6.9 mph - N/A   Clear
12:35 PM 46.4 °F 41.9 °F 21.2 °F 37% 30.31 in 10.0 mi SW 9.2 mph - N/A   Clear
12:55 PM 48.2 °F - 21.2 °F 34% 30.30 in 10.0 mi South 10.4 mph - N/A   Clear
1:15 PM 46.4 °F 41.9 °F 19.4 °F 34% 30.28 in 10.0 mi South 9.2 mph - N/A   Clear
1:35 PM 48.2 °F - 21.2 °F 34% 30.28 in 10.0 mi South 11.5 mph - N/A   Clear
1:55 PM 48.2 °F - 19.4 °F 32% 30.26 in 10.0 mi South 11.5 mph - N/A   Clear
2:15 PM 48.2 °F - 21.2 °F 34% 30.25 in 10.0 mi South 10.4 mph 16.1 mph N/A   Clear
2:35 PM 50.0 °F - 21.2 °F 32% 30.24 in 10.0 mi SSW 12.7 mph - N/A   Clear
2:55 PM 50.0 °F - 19.4 °F 30% 30.23 in 10.0 mi SSW 9.2 mph - N/A   Clear
3:15 PM 50.0 °F - 21.2 °F 32% 30.23 in 10.0 mi South 8.1 mph - N/A   Clear
3:35 PM 48.2 °F - 21.2 °F 34% 30.23 in 10.0 mi South 6.9 mph - N/A   Clear
3:55 PM 48.2 °F - 21.2 °F 34% 30.23 in 10.0 mi South 6.9 mph 18.4 mph N/A   Clear
4:15 PM 46.4 °F 43.5 °F 21.2 °F 37% 30.23 in 10.0 mi South 5.8 mph - N/A   Clear
4:35 PM 46.4 °F 43.5 °F 21.2 °F 37% 30.23 in 10.0 mi SSW 5.8 mph - N/A   Clear
4:55 PM 44.6 °F 42.2 °F 19.4 °F 37% 30.23 in 10.0 mi SSW 4.6 mph - N/A   Clear
5:15 PM 42.8 °F 39.3 °F 19.4 °F 39% 30.23 in 10.0 mi SSW 5.8 mph - N/A   Clear
5:35 PM 41.0 °F 38.0 °F 21.2 °F 45% 30.24 in 10.0 mi SSW 4.6 mph - N/A   Clear
5:55 PM 39.2 °F 35.9 °F 21.2 °F 49% 30.24 in 10.0 mi SSW 4.6 mph - N/A   Clear
6:15 PM 39.2 °F 37.0 °F 19.4 °F 45% 30.25 in 10.0 mi SSW 3.5 mph - N/A   Clear
6:35 PM 39.2 °F 35.9 °F 21.2 °F 49% 30.25 in 10.0 mi SW 4.6 mph - N/A   Clear
6:55 PM 39.2 °F 35.9 °F 21.2 °F 49% 30.25 in 10.0 mi SW 4.6 mph - N/A   Clear
7:15 PM 37.4 °F 33.8 °F 21.2 °F 52% 30.25 in 10.0 mi SW 4.6 mph - N/A   Clear
7:55 PM 33.8 °F 30.8 °F 21.2 °F 60% 30.25 in 10.0 mi SW 3.5 mph - N/A   Clear
8:15 PM 35.6 °F 32.8 °F 21.2 °F 56% 30.25 in 10.0 mi SW 3.5 mph - N/A   Clear
8:35 PM 33.8 °F - 21.2 °F 60% 30.26 in 10.0 mi Calm Calm - N/A   Clear
8:55 PM 35.6 °F - 21.2 °F 56% 30.26 in 10.0 mi Calm Calm - N/A   Clear
9:15 PM 32.0 °F - 21.2 °F 64% 30.26 in 10.0 mi Calm Calm - N/A   Clear
9:35 PM 28.4 °F - 21.2 °F 74% 30.27 in 10.0 mi Calm Calm - N/A   Clear
9:55 PM 28.4 °F - 21.2 °F 74% 30.27 in 10.0 mi Calm Calm - N/A   Clear
10:15 PM 28.4 °F - 21.2 °F 74% 30.27 in 10.0 mi Calm Calm - N/A   Clear
10:35 PM 26.6 °F - 19.4 °F 74% 30.27 in 10.0 mi Calm Calm - N/A   Clear
10:55 PM 28.4 °F - 21.2 °F 74% 30.27 in 10.0 mi Calm Calm - N/A   Clear
11:15 PM 28.4 °F - 21.2 °F 74% 30.26 in 10.0 mi Calm Calm - N/A   Clear
11:35 PM 28.4 °F - 21.2 °F 74% 30.26 in 10.0 mi Calm Calm - N/A   Mostly Cloudy
11:55 PM 28.4 °F - 23.0 °F 80% 30.26 in 10.0 mi Calm Calm - N/A   Mostly Cloudy